Location: Windsor
(43.2292°N, 89.3015°W)
Time: 02:35:00
(UTC+00:00)

MOZHAYETS 4 - Pass Details

Date: 02 July 2022
Orbit: 660 x 679 km, 98.2° (Epoch: 13 August)

Event Time Altitude Azimuth Distance (km) Brightness Sun altitude
Exits shadow 08:05:32 16° 155° (SSE) 1,721 9.5 -17.8°
Maximum altitude 08:09:08 69° 74° (ENE) 725 8.0 -17.5°
Drops below altitude 10° 08:13:43 10° 352° (N) 2,112 11.0 -17.1°
Sets 08:15:58 0° 350° (N) 3,028 11.9 -16.9°
